Regional Weather Roundup
Issued by NWS Newport/Morehead, NC

Current Version | Previous Version | Graphics & Text | Print | Product List | Glossary On
Versions: 1 2 3 4 5 6 7 8 9 10 11 12 13 14 15 16 17 18 19 20 21 22 23 24 25 26 27 28 29 30 31 32 33 34 35 36 37 38 39 40 41 42 43 44 45 46 47 48 49 50
000 ASUS42 KMHX 280522 RWRMHX WEATHER ROUNDUP FOR EASTERN NORTH CAROLINA NATIONAL WEATHER SERVICE NEWPORT/MOREHEAD CITY NC 1200 AM EST WED JAN 28 2015 NOTE: "FAIR" INDICATES FEW OR NO CLOUDS BELOW 12,000 FEET WITH NO SIGNIFICANT WEATHER AND/OR OBSTRUCTIONS TO VISIBILITY NCZ015>017-031-032-045>047-102-103-280600- NORTH COAST CITY SKY/WX TMP DP RH WIND PRES REMARKS EDENTON CLOUDY 34 30 85 NW7 29.95R ELIZABETH CITY CLOUDY 34 26 72 NW13 29.93R KITTY HAWK CLOUDY 35 27 72 N9 29.90R MANTEO CLOUDY 36 27 69 N10G17 29.92R $$ NCZ045>047-081-094-103-104-280600- CENTRAL COAST CITY SKY/WX TMP DP RH WIND PRES REMARKS FRISCO CLOUDY 36 30 79 MISG 29.91R SWANQUARTER NOT AVBL $$ NCZ095-097-098-100-101-280600- SOUTHERN COAST CITY SKY/WX TMP DP RH WIND PRES REMARKS BEAUFORT PTCLDY 35 30 82 NW8 29.95R CEDAR ISLAND NOT AVBL JACKSONVILLE FAIR 29 26 89 W3 29.96R PINEY ISLAND N/A N/A N/A N/A MISG 29.94R WILMINGTON CLEAR 31 27 85 W6 29.97R $$ NCZ011>013-027>030-043-044-078>080-089-090>093-098-280600- COASTAL PLAIN CITY SKY/WX TMP DP RH WIND PRES REMARKS AHOSKIE CLOUDY 33 28 83 CALM 29.97R CLINTON CLEAR 33 19 55 CALM 30.00R ELIZABETHTOWN CLEAR 35 13 39 N3 29.99R GOLDSBORO CLEAR 31 28 88 CALM 29.97R GREENVILLE CLEAR 32 30 93 CALM 29.99R HAVELOCK MOCLDY 31 26 82 CALM 29.97R KENANSVILLE CLEAR 33 19 55 NW6 29.98R KINSTON CLEAR 26 25 96 CALM 29.98R NEW BERN PTCLDY 29 24 82 CALM 29.97R RICHLANDS CLEAR 27 23 86 CALM 29.97R ROCKY MOUNT CLEAR 30 25 81 N7 29.99R WASHINGTON CLOUDY 34 28 80 CALM 29.96R WHITEVILLE CLEAR 37 16 43 W3 29.99R $$ AMZ130-135-150-152-154-156-158-170-250-252-270-ANZ085-086-088-633-658-670-280600- MARINE OBSERVATIONS STATION/POSITION TIME TEMP WIND PRES WAVE SWELL AIR SEA DIR/SP/G HT/PER HT/PER (UTC) (F) (DEG/KT/KT) (MB) (FT/S) (FT/S) CHESAPEAKE LIGHT 0500 34 330/ 23/ 24 1013.4 64 E VA BEACH 0500 38 52 340/ 23/ 29 1010.5 11/12 8/12 DUCK 0500 35 43 330/ 15/ 19 1012.1 2 E DUCK 0500 43 N/A 7/13 5/13 10 NE DUCK 0500 45 N/A 10/13 7/13 OREGON INLET 0500 35 44 320/ 10/ 13 1012.9 13E OREGON INLT 0500 46 N/A 11/13 8/13 HATTERAS CG 0500 38 47 340/ 17/ 20 1013.2 DIAMOND BUOY 0500 40 340/ 17/ 21 1012.2 8/14 7/14 17 S OCRACOKE NOT AVBL CAPE LOOKOUT 0500 38 330/ 10/ 12 1013.9 BEAUFORT LAB 0500 35 48 330/ 3/ 7 1013.1 27 SE WRIGHTSVLE NOT AVBL 5 SE WRIGHTSVLE 0500 43 53 290/ 14/ 16 1014.3 225 S CAPE HAT 0418 56 71 310/ 23/ 33 1011.0 13/ 8 41 SE CHARLESTON 0500 51 67 320/ 14/ 19 1015.2 3/ 5 2/ 9 $$

USA.gov is the U.S. government's official web portal to all federal, state and local government web resources and services.